Volver al catálogo

STARLINK-34978

ActivoComunicacionesSSO
NORAD 65435·PAYLOAD·🇺🇸 United States

Lanzado Sep 3, 2025 desde Vandenberg Space Force Base

Loading…

Próximos Pases (próximas 24 horas)

TLE

ActualizadoSource: CelesTrak SupGP

Época: Sep 15, 2026, 04:06 UTC

1 65435C 25194B   26258.17131944 -.00046935  00000+0 -14571-2 0  2583
2 65435  97.2845 107.9341 0002045  94.2683 279.5624 15.33458165    15

Sigue STARLINK-34978 en tiempo real con AllMySat

Download on the App Store